Regional Weather Roundup
Issued by NWS

Home | Current Version | Previous Version | Text Only | Print | Product List | Glossary On
Versions: 1 2 3 4 5 6 7 8 9 10 11 12 13 14 15 16 17 18 19 20 21 22 23 24 25 26 27 28 29 30 31 32 33 34 35 36 37 38 39 40 41 42 43 44 45 46 47 48 49 50
000
ASUS46 KSEW 011510
RWRWA

WASHINGTON REGIONAL WEATHER ROUNDUP
NATIONAL WEATHER SERVICE SEATTLE WA
800 AM PDT WED JUL 01 2015

NOTE:"FAIR" INDICATES FEW OR NO CLOUDS BELOW 12,000 FEET WITH NO
SIGNIFICANT WEATHER AND/OR OBSTRUCTIONS TO VISIBILITY.

WAZ505-507>509-011600-
SEATTLE, TACOMA, EVERETT, AND VICINITY

CITY           SKY/WX    TMP DP  RH WIND       PRES   REMARKS
EVERETT        SUNNY     64  55  72 N7        30.08S
BOEING FIELD   SUNNY     72  54  53 NE6       30.06R
RENTON         SUNNY     68  54  60 N10       30.05S
SEATAC AIRPORT SUNNY     70  53  54 N9        30.07S
JBLM-MCCHORD   SUNNY     69  55  60 NE5       30.06S
PUYALLUP       FAIR      68  57  68 CALM      30.07R
BREMERTON      SUNNY     66  54  63 NE8       30.08S
JBLM-FT LEWIS  SUNNY     66  56  69 VRB3      30.05S
TACOMA NARROWS SUNNY     65  53  65 NE7       30.07S
$$

WAZ001-503-506-510-514-515-011600-
NORTH INTERIOR

CITY           SKY/WX    TMP DP  RH WIND       PRES   REMARKS
BELLINGHAM     SUNNY     67  59  75 CALM      30.07S
FRIDAY HARBOR  SUNNY     67  54  63 N13       30.09R
EASTSOUND      SUNNY     63  55  77 N10       30.07S
PORT ANGELES   SUNNY     65  54  67 E3        30.08S
PORT TOWNSEND  FAIR      68  55  64 NW5       30.07F
NAS WHIDBEY    MOSUNNY   60  54  80 W5        30.11F
ARLINGTON      SUNNY     64  54  68 N3        30.08S
BURLINGTON     SUNNY     66  59  77 NW9       30.07F
$$

WAZ020-022-039-040-504-511-512-011600-
SOUTHWEST INTERIOR

CITY           SKY/WX    TMP DP  RH WIND       PRES   REMARKS
SHELTON        SUNNY     60  53  77 CALM      30.05R
OLYMPIA        SUNNY     66  54  65 N3        30.06S
CHEHALIS       FAIR      63  55  77 N6        30.05F
KELSO          SUNNY     61  54  77 NW5       30.07F
VANCOUVER      SUNNY     65  53  65 N5        30.01S
SCAPPOOSE, OR  SUNNY     69  52  54 N10       30.01S
PORTLAND, OR   SUNNY     65  55  70 NW3       30.02S
$$

WAZ021-516-517-011600-
WASHINGTON COAST

CITY           SKY/WX    TMP DP  RH WIND       PRES   REMARKS
FORKS          SUNNY     57  54  89 CALM      30.06R
HOQUIAM        CLOUDY    55  55 100 NE5       30.06F FOG
ASTORIA, OR    CLOUDY    58  56  93 CALM      30.05S
$$

WAZ019-023-024-040-518-519-011600-
CASCADE MOUNTAINS AND COLUMBIA GORGE

CITY           SKY/WX    TMP DP  RH WIND       PRES   REMARKS
TROUTDALE, OR  SUNNY     66  55  67 SW5       30.00S
THE DALLES, OR SUNNY     75  58  55 N3        29.97S
$$

WAZ026-027-041>044-520-521-011600-
EAST SLOPES

CITY           SKY/WX    TMP DP  RH WIND       PRES   REMARKS
OMAK           SUNNY     77  54  44 N20G25    30.04S
WENATCHEE      SUNNY     76  53  44 W3        30.01S
ELLENSBURG     SUNNY     73  53  49 SE5       30.04R
YAKIMA         SUNNY     78  53  41 NW8       30.01S
$$

WAZ028-034-035-011600-
COLUMBIA BASIN

CITY           SKY/WX    TMP DP  RH WIND       PRES   REMARKS
EPHRATA        SUNNY     84  49  29 N18       29.98S
MOSES LAKE     SUNNY     83  48  29 N14       29.99R
PASCO          SUNNY     80  54  40 CALM      29.96S
HERMISTON, OR  SUNNY     79  56  45 W5        29.97S
$$

WAZ036>038-011600-
NORTHEAST WASHINGTON

CITY           SKY/WX    TMP DP  RH WIND       PRES   REMARKS
SPOKANE GEIGER MOSUNNY   74  49  41 VRB3      30.01S
SPOKANE FELTS  SUNNY     75  56  51 NE3       30.01S
FAIRCHILD AFB  SUNNY     76  51  42 NE9       30.02R
COEURDALENE,ID SUNNY     73  55  53 NE3       30.02R
DEER PARK      SUNNY     74  57  55 CALM      30.02R
$$

WAZ029>033-011600-
SOUTHEAST WASHINGTON

CITY           SKY/WX    TMP DP  RH WIND       PRES   REMARKS
PULLMAN        SUNNY     74  50  42 SW3       30.05S
LEWISTON, ID   SUNNY     76  53  44 E7        29.99R
WALLA WALLA    SUNNY     80  51  36 SW7       30.00R
PENDLETON, OR  SUNNY     74  50  42 SE6       30.01S
$$



USA.gov is the U.S. government's official web portal to all federal, state and local government web resources and services.